Weather History for Flint, MI

Change the Weather History Date:

Thursday, December 15, 2011

  Actual Average Record
Temperature  
Mean Temperature 45 °F 27 °F  
Max Temperature 57 °F 34 °F 60 °F (1971)
Min Temperature 33 °F 21 °F -3 °F (1989)
Degree Days  
Heating Degree Days 20 38  
Month to date heating degree days 464 527  
Since 1 July heating degree days 1673 2008  
Cooling Degree Days 0 0  
Month to date cooling degree days 0 0  
Year to date cooling degree days 819 531  
Moisture  
Dew Point 44 °F    
Average Humidity 78    
Maximum Humidity 93    
Minimum Humidity 63    
Precipitation  
Precipitation 0.11 in 0.06 in 1.74 in (1971)
Month to date precipitation 1.18 0.99  
Year to date precipitation 40.06 30.44  
Snow  
Snow T in 0.40 in 4.60 in (2005)
Month to date snowfall 2.2 5.2  
Since 1 July snowfall 5.9 8.1  
Snow Depth 0.00 in    
Sea Level Pressure  
Sea Level Pressure 29.69 in    
Wind  
Wind Speed 18 mph (WSW)    
Max Wind Speed 38 mph    
Max Gust Speed 46 mph    
Visibility 9 miles    
Events Rain , Snow    
T = Trace of Precipitation, MM = Missing Value Source: NWS Daily Summary

Daily Weather History Graph

Daily Weather History Graph

Search for Another Location

Airport:

Trip Planner

Search our weather history database for the weather conditions in past years. The results will help you decide how hot, cold, wet, or windy it might be!

Date:

Astronomy

Dec. 15, 2011 Rise Set
Actual Time 7:59 AM EST 5:01 PM EST
Civil Twilight 7:26 AM EST 5:33 PM EST
Nautical Twilight 6:50 AM EST 6:09 PM EST
Astronomical Twilight 6:16 AM EST 6:43 PM EST
Moon 10:33 PM EST (12/15) 11:08 AM EST (12/15)
Length of Visible Light 10h 06m
Length of Day
9h 02m
Waning Gibbous, 75% of the Moon is Illuminated
Dec 15
Waning Gibbous
Dec 17
Last Quarter
Dec 24
New
Jan 1
First Quarter
Jan 9
Full

Hourly Weather History & Observations

Time (EST) Temp. Windchill Dew Point Humidity Pressure Visibility Wind Dir Wind Speed Gust Speed Precip Events Conditions
12:53 AM 54.0 °F - 51.1 °F 90% 29.72 in 10.0 mi SSW 15.0 mph 23.0 mph 0.00 in   Overcast
1:53 AM 55.4 °F - 51.8 °F 88% 29.67 in 7.0 mi SSW 12.7 mph 21.9 mph N/A   Overcast
2:53 AM 55.9 °F - 52.0 °F 87% 29.66 in 10.0 mi SW 12.7 mph 21.9 mph 0.01 in   Overcast
3:53 AM 55.9 °F - 53.1 °F 90% 29.64 in 9.0 mi SSW 12.7 mph 19.6 mph 0.01 in   Overcast
4:53 AM 55.9 °F - 53.1 °F 90% 29.62 in 10.0 mi SSW 9.2 mph 18.4 mph 0.00 in   Overcast
5:53 AM 55.9 °F - 53.1 °F 90% 29.61 in 5.0 mi SW 11.5 mph 19.6 mph 0.01 in Rain Light Rain
6:27 AM 55.4 °F - 53.6 °F 94% 29.61 in 6.0 mi SW 12.7 mph 19.6 mph 0.00 in   Overcast
6:53 AM 55.9 °F - 53.1 °F 90% 29.61 in 4.0 mi SW 10.4 mph - 0.03 in Rain Light Rain
7:21 AM 55.4 °F - 53.6 °F 94% 29.58 in 10.0 mi SSW 10.4 mph - 0.01 in   Overcast
7:24 AM 55.4 °F - 53.6 °F 94% 29.58 in 10.0 mi SW 9.2 mph - 0.01 in   Overcast
7:36 AM 55.4 °F - 51.8 °F 88% 29.58 in 10.0 mi SW 10.4 mph - 0.01 in   Overcast
7:53 AM 55.9 °F - 52.0 °F 87% 29.59 in 10.0 mi SSW 12.7 mph - 0.01 in   Overcast
8:23 AM 55.4 °F - 51.8 °F 88% 29.58 in 10.0 mi SW 13.8 mph 23.0 mph N/A   Overcast
8:48 AM 55.4 °F - 51.8 °F 88% 29.59 in 10.0 mi SW 10.4 mph 20.7 mph N/A   Overcast
8:53 AM 55.9 °F - 52.0 °F 87% 29.59 in 10.0 mi SW 12.7 mph - N/A   Overcast
9:53 AM 55.9 °F - 51.1 °F 84% 29.60 in 10.0 mi West 24.2 mph 29.9 mph N/A   Overcast
10:12 AM 55.4 °F - 46.4 °F 72% 29.60 in 10.0 mi West 17.3 mph 35.7 mph N/A   Overcast
10:36 AM 53.6 °F - 46.4 °F 77% 29.61 in 10.0 mi West 20.7 mph 29.9 mph N/A   Overcast
10:53 AM 53.1 °F - 44.1 °F 71% 29.62 in 10.0 mi West 18.4 mph 34.5 mph N/A   Overcast
11:53 AM 52.0 °F - 43.0 °F 71% 29.62 in 10.0 mi West 21.9 mph 32.2 mph N/A   Overcast
12:53 PM 51.1 °F - 39.9 °F 66% 29.63 in 10.0 mi West 20.7 mph 34.5 mph N/A   Mostly Cloudy
1:53 PM 50.0 °F - 39.2 °F 66% 29.65 in 10.0 mi West 24.2 mph 32.2 mph N/A   Overcast
2:24 PM 48.2 °F - 37.4 °F 66% 29.65 in 10.0 mi West 17.3 mph 28.8 mph N/A   Overcast
2:53 PM 48.0 °F - 37.9 °F 68% 29.67 in 10.0 mi West 15.0 mph 26.5 mph N/A   Overcast
3:53 PM 45.0 °F 36.2 °F 39.0 °F 80% 29.70 in 7.0 mi West 24.2 mph 33.4 mph 0.00 in Rain Light Rain
4:37 PM 44.6 °F 36.6 °F 37.4 °F 76% 29.72 in 10.0 mi West 19.6 mph 31.1 mph 0.00 in Rain Light Rain
4:53 PM 43.0 °F 35.1 °F 37.9 °F 82% 29.74 in 10.0 mi West 17.3 mph 25.3 mph 0.00 in Rain Light Rain
5:53 PM 42.1 °F 34.2 °F 37.9 °F 85% 29.77 in 10.0 mi West 16.1 mph 24.2 mph 0.00 in Rain Light Rain
6:53 PM 39.9 °F 30.0 °F 35.1 °F 83% 29.81 in 10.0 mi West 21.9 mph 34.5 mph 0.02 in Rain Light Rain
7:11 PM 39.2 °F 28.5 °F 35.6 °F 87% 29.81 in 9.0 mi West 24.2 mph 35.7 mph 0.00 in Rain Light Rain
7:53 PM 36.0 °F 23.2 °F 30.9 °F 82% 29.87 in 7.0 mi West 28.8 mph 46.0 mph 0.00 in Rain Light Rain
8:53 PM 35.1 °F 22.2 °F 26.1 °F 70% 29.92 in 10.0 mi West 27.6 mph 34.5 mph 0.02 in   Overcast
9:53 PM 35.1 °F 23.8 °F 26.1 °F 70% 29.95 in 10.0 mi WNW 20.7 mph 32.2 mph N/A   Overcast
10:53 PM 35.1 °F 26.4 °F 25.0 °F 67% 29.98 in 9.0 mi West 12.7 mph 25.3 mph 0.00 in Snow Light Snow
11:53 PM 33.1 °F 20.3 °F 21.0 °F 61% 30.04 in 10.0 mi West 24.2 mph 41.4 mph 0.00 in   Overcast